EW0956 Weather Reports


Display with metric or nautical units.
time (UTC)temp
F
wind
direction
speed
MPH
gust
MPH
rain 1hr
in
rain 24hr
in
rain mn
in
humidity
%
barometer
mb
20260507044602 38 291 0.0 0.0 0.00 0.00 0.00 60 1016.0
20260507043056 39 291 0.0 0.0 0.00 0.00 0.00 57 1016.1
20260507041556 40 291 0.0 0.0 0.00 0.00 0.00 56 1016.2
20260507040055 41 291 0.0 0.0 0.00 0.00 0.00 56 1016.2
20260507034554 41 291 0.0 0.0 0.00 0.00 0.00 54 1016.3
20260507033054 43 291 0.0 0.0 0.00 0.00 0.00 53 1016.4
20260507031554 44 288 0.0 0.0 0.00 0.00 0.00 51 1016.3
20260507030101 45 288 0.0 0.0 0.00 0.00 0.00 49 1016.4
20260507024554 46 288 0.0 0.0 0.00 0.00 0.00 47 1016.4
20260507023052 46 288 0.0 0.0 0.00 0.00 0.00 46 1016.5
20260507021613 48 288 0.0 0.0 0.00 0.00 0.00 43 1016.4
20260507020100 50 288 0.0 0.0 0.00 0.00 0.00 41 1016.3
20260507014610 50 297 0.0 0.0 0.00 0.00 0.00 40 1016.4
20260507013054 51 285 0.0 0.0 0.00 0.00 0.00 39 1016.3
20260507011550 52 302 0.0 1.0 0.00 0.00 0.00 38 1016.3
20260507010149 52 302 0.0 1.0 0.00 0.00 0.00 37 1016.3
20260507004548 52 304 0.0 2.0 0.00 0.00 0.00 37 1016.3
20260507003047 52 285 0.0 1.0 0.00 0.00 0.00 37 1016.3
20260507001551 53 322 0.0 1.0 0.00 0.00 0.00 38 1016.5
20260507000046 53 319 0.0 0.0 0.00 0.00 0.00 37 1016.7
20260506234546 53 261 0.0 1.0 0.00 0.00 0.00 38 1016.8
20260506233047 53 281 0.0 1.0 0.00 0.00 0.00 37 1016.8
20260506231544 53 293 0.0 3.0 0.00 0.00 0.00 35 1017.0
20260506230044 53 315 0.0 5.0 0.00 0.00 0.00 37 1016.9
20260506224543 53 278 4.0 12.0 0.00 0.00 0.00 36 1017.0
20260506223042 53 295 0.0 1.0 0.00 0.00 0.00 36 1017.0
20260506221545 53 277 0.0 2.0 0.00 0.00 0.00 37 1017.3
20260506220043 53 340 0.0 2.0 0.00 0.00 0.00 37 1017.2
20260506214540 54 315 0.0 20.0 0.00 0.00 0.00 35 1017.4
20260506213038 54 293 5.0 16.0 0.00 0.00 0.00 36 1017.4
20260506211536 54 314 0.0 2.0 0.00 0.00 0.00 38 1017.6
20260506210035 53 316 5.0 15.0 0.00 0.00 0.00 37 1017.8
20260506204534 53 287 10.0 17.0 0.00 0.00 0.00 38 1018.2
20260506203032 52 308 0.0 10.0 0.00 0.00 0.00 40 1018.3
20260506201541 51 318 0.0 16.0 0.00 0.00 0.00 40 1018.3
20260506200029 51 319 0.0 10.0 0.00 0.00 0.00 40 1018.7
20260506194529 51 318 2.0 11.0 0.00 0.00 0.00 40 1018.7
20260506193026 50 332 0.0 2.0 0.00 0.00 0.00 39 1018.8
20260506191523 50 326 4.0 12.0 0.00 0.00 0.00 40 1018.9
20260506190021 49 307 5.0 12.0 0.00 0.00 0.00 42 1019.1
20260506184521 49 299 1.0 3.0 0.00 0.00 0.00 41 1019.2
20260506183022 49 313 0.0 3.0 0.00 0.00 0.00 40 1019.3
20260506181518 49 307 0.0 2.0 0.00 0.00 0.00 43 1019.4
20260506180017 48 318 0.0 2.0 0.00 0.00 0.00 42 1019.4
20260506174514 48 283 0.0 14.0 0.00 0.00 0.00 43 1019.5
20260506173011 47 313 2.0 12.0 0.00 0.00 0.00 45 1019.6
20260506171510 46 299 4.0 11.0 0.00 0.00 0.00 45 1019.7
20260506170011 46 300 0.0 3.0 0.00 0.00 0.00 45 1019.7
20260506164508 46 319 0.0 1.0 0.00 0.00 0.00 47 1019.6
20260506163007 46 302 0.0 2.0 0.00 0.00 0.00 47 1019.6
20260506161505 46 303 0.0 2.0 0.00 0.00 0.00 49 1019.7
20260506160011 45 301 0.0 1.0 0.00 0.00 0.00 50 1019.6
20260506154502 45 302 0.0 2.0 0.00 0.00 0.00 51 1019.6
20260506153002 45 287 0.0 2.0 0.00 0.00 0.00 48 1019.5
20260506151501 46 308 0.0 3.0 0.00 0.00 0.00 48 1019.4
20260506150059 45 328 0.0 2.0 0.00 0.00 0.00 50 1019.5
20260506144600 45 311 0.0 13.0 0.00 0.00 0.00 53 1019.5
20260506143054 45 332 0.0 1.0 0.00 0.00 0.00 52 1019.4
20260506141555 45 326 0.0 1.0 0.00 0.00 0.00 54 1019.4
20260506140056 44 314 0.0 1.0 0.00 0.00 0.00 56 1019.3
20260506134545 43 298 0.0 1.0 0.00 0.00 0.00 57 1019.3
20260506133041 41 293 0.0 1.0 0.00 0.00 0.00 61 1019.3
20260506131541 39 298 0.0 1.0 0.00 0.00 0.00 66 1019.4
20260506130039 39 288 0.0 1.0 0.00 0.00 0.00 68 1019.4
20260506124539 38 297 0.0 1.0 0.00 0.00 0.00 70 1019.1
20260506123036 37 273 0.0 1.0 0.00 0.00 0.00 72 1019.0
20260506121534 36 270 0.0 1.0 0.00 0.00 0.00 72 1018.9
20260506120034 35 238 0.0 1.0 0.00 0.00 0.00 73 1018.5
20260506114530 35 287 0.0 0.0 0.00 0.00 0.00 73 1018.3
20260506113028 35 271 0.0 0.0 0.00 0.00 0.00 72 1018.2
20260506111529 34 291 0.0 0.0 0.00 0.00 0.00 73 1017.9
20260506110027 33 300 0.0 0.0 0.00 0.00 0.00 74 1018.0
20260506104523 32 289 0.0 1.0 0.00 0.00 0.00 74 1017.8
20260506103022 33 280 0.0 0.0 0.00 0.00 0.00 71 1017.5
20260506101522 34 275 0.0 0.0 0.00 0.00 0.00 70 1017.3
20260506100018 34 293 0.0 0.0 0.00 0.00 0.00 70 1017.3
20260506094515 34 288 0.0 0.0 0.00 0.00 0.00 68 1017.4
20260506093013 35 288 0.0 0.0 0.00 0.00 0.00 67 1017.1
20260506091514 35 307 0.0 0.0 0.00 0.00 0.00 67 1017.1
20260506090009 36 328 0.0 0.0 0.00 0.00 0.00 66 1017.1
20260506084512 36 302 0.0 0.0 0.00 0.00 0.00 66 1017.5
20260506083007 36 290 0.0 0.0 0.00 0.00 0.00 65 1017.1
20260506081507 37 338 0.0 0.0 0.00 0.00 0.00 64 1016.6
20260506080112 37 314 0.0 0.0 0.00 0.00 0.00 64 1016.8
20260506073111 37 327 0.0 0.0 0.00 0.00 0.00 64 1016.6
20260506071558 37 331 0.0 0.0 0.00 0.00 0.00 64 1016.5
20260506061600 38 330 0.0 0.0 0.00 0.00 0.00 61 1016.5